Regional Weather Roundup
Issued by NWS Kansas City/Pleasant Hill, MO

Home | Current Version | Previous Version | Graphics & Text | Print | Product List | Glossary Off
Versions: 1 2 3 4 5 6 7 8 9 10 11 12 13 14 15 16 17 18 19 20 21 22 23 24 25 26 27 28 29 30 31 32 33 34 35 36 37 38 39 40 41 42 43 44 45 46 47 48 49 50

000
ASUS43 KEAX 291410
RWREAX

WEATHER ROUNDUP FOR EASTERN KANSAS AND NORTHWEST MISSOURI
NATIONAL WEATHER SERVICE KANSAS CITY/PLEASANT HILL MO
900 AM CDT MON AUG 29 2016

KSZ040-057-103>105-MOZ028-029-037-043-291500-
...KANSAS CITY METROPOLITAN AREA...

CITY           SKY/WX    TMP DP  RH WIND       PRES   REMARKS
K.C. INTL      MOSUNNY   77  71  82 SE5       30.18R
K.C. DOWNTOWN  SUNNY     79  73  82 CALM      30.17R
LEES SUMMIT    PTSUNNY   77  72  84 CALM      30.19R
OLATHE - IXD   SUNNY     77  72  84 SE6       30.19R
OLATHE - OJC   SUNNY     73  71  93 CALM      30.19R
LAWRENCE       SUNNY     75  72  90 CALM      30.17S

$$

MOZ001>008-011>017-020>025-030>033-038>040-044>046-053-054-291500-
...NORTHERN AND CENTRAL MISSOURI...

CITY           SKY/WX    TMP DP  RH WIND       PRES   REMARKS
ST. JOSEPH     SUNNY     76  71  85 CALM      30.18R
MOSBY          SUNNY     73  72  94 CALM      30.19R
WHITEMAN AFB   MOSUNNY   77  77 100 S1        30.18R
CLINTON        SUNNY     77  75  94 CALM      30.19R
SEDALIA        SUNNY     80  73  79 S5        30.20R
WARSAW         NOT AVBL
CHILLICOTHE    NOT AVBL
KIRKSVILLE     FOG       73  72  96 NE6       30.22R VSB 1/2

$$

MOZ041-047>049-056>058-063>065-088>090-097-291500-
...EASTERN AND SOUTHERN MISSOURI...

CITY           SKY/WX    TMP DP  RH WIND       PRES   REMARKS
ST. LOUIS INTL MOSUNNY   82  73  74 E8        30.20R
SPIRIT OF STL  SUNNY     81  76  84 E3        30.18
COLUMBIA       SUNNY     80  73  79 CALM      30.20R
JEFFERSON CITY SUNNY     78  74  87 CALM      30.18R FOG
ROLLA          SUNNY     79  73  82 SE3       30.20R
OSAGE BEACH    SUNNY     77  73  87 CALM      30.20R
SPRINGFIELD    SUNNY     81  71  71 SE8       30.19R
BRANSON        MOSUNNY   77  72  83 CALM      30.20R
JOPLIN         SUNNY     79  71  76 SE5       30.17S
WEST PLAINS    SUNNY     79  72  79 E5        30.21S

$$

IAZ060-094-KSZ022-034>040-054-083-096-NEZ052-066-093-291500-
...KANSAS...SOUTHEAST NEBRASKA AND IOWA...

CITY           SKY/WX    TMP DP  RH WIND       PRES   REMARKS
TOPEKA         SUNNY     76  72  87 CALM      30.17R
MANHATTAN      SUNNY     76  70  82 CALM      30.16R
EMPORIA        PTSUNNY   75  71  87 S5        30.17R
CHANUTE        SUNNY     79  71  76 E5        30.16S
WICHITA        CLOUDY    75  69  81 SE7       30.16R
OMAHA          CLOUDY    73  67  81 SE8       30.19R
LINCOLN        MOSUNNY   75  69  81 SE3       30.19R
FALLS CITY     PTSUNNY   73  70  90 E3        30.17S
LAMONI         SUNNY     76  71  85 CALM      30.20R
DES MOINES     CLOUDY    73  71  93 SE8       30.20R

$$




USA.gov is the U.S. government's official web portal to all federal, state and local government web resources and services.